FW4191 Weather Reports


Display with metric or nautical units.
time (UTC)temp
F
wind
direction
speed
MPH
gust
MPH
rain 1hr
in
rain 24hr
in
rain mn
in
humidity
%
barometer
mb
20260504001716 57 202 0.0 1.0 0.00 0.31 0.30 44 1077.2
20260504000716 57 180 0.0 0.0 0.00 0.31 0.30 42 1077.1
20260504000633 57 180 0.0 0.0 0.00 0.31 0.30 42 1077.0
20260503235715 57 246 0.0 2.0 0.00 0.31 0.30 42 1077.1
20260503234716 58 293 0.0 1.0 0.00 0.31 0.30 42 1076.9
20260503234616 58 288 0.0 0.0 0.00 0.31 0.30 43 1076.9
20260503233715 58 270 0.0 2.0 0.00 0.31 0.30 42 1077.1
20260503232716 58 232 0.0 2.0 0.00 0.31 0.30 41 1077.2
20260503231716 59 226 2.0 3.0 0.00 0.31 0.30 39 1077.5
20260503230716 59 248 0.0 2.0 0.00 0.31 0.30 40 1077.9
20260503224815 60 202 0.0 2.0 0.00 0.31 0.30 39 1078.1
20260503223814 60 214 0.0 1.0 0.00 0.31 0.30 38 1078.3
20260503223716 60 225 0.0 0.0 0.00 0.31 0.30 38 1078.3
20260503222715 61 217 2.0 4.0 0.00 0.31 0.30 39 1078.6
20260503220730 60 196 2.0 4.0 0.00 0.31 0.30 40 1078.7
20260503215731 59 242 1.0 3.0 0.00 0.31 0.30 40 1078.8
20260503214731 59 59 0.0 0.0 0.00 0.31 0.30 39 1078.8
20260503212733 59 247 0.0 0.0 0.00 0.31 0.30 41 1078.9
20260503211714 58 168 0.0 4.0 0.00 0.31 0.30 42 1079.1
20260503210616 58 220 1.0 3.0 0.00 0.32 0.30 42 1079.5
20260503205630 58 223 0.0 1.0 0.00 0.32 0.30 42 1080.1
20260503205515 58 225 0.0 0.0 0.00 0.32 0.30 42 1080.1
20260503204514 58 275 1.0 4.0 0.00 0.32 0.30 40 1080.2
20260503203614 59 341 0.0 1.0 0.00 0.32 0.30 38 1080.0
20260503202617 60 258 1.0 5.0 0.00 0.32 0.30 37 1079.9
20260503202531 60 292 0.0 1.0 0.00 0.32 0.30 37 1080.0
20260503200616 62 252 2.0 3.0 0.00 0.32 0.30 38 1079.7
20260503195714 62 339 0.0 4.0 0.00 0.32 0.30 36 1079.8
20260503194715 62 230 2.0 5.0 0.00 0.32 0.30 35 1080.1
20260503192814 63 250 2.0 4.0 0.00 0.32 0.30 37 1080.5
20260503192731 63 231 5.0 9.0 0.00 0.32 0.30 37 1080.7
20260503191729 63 232 3.0 5.0 0.00 0.32 0.30 38 1080.8
20260503190814 62 245 3.0 11.0 0.00 0.32 0.30 37 1081.1
20260503185832 61 205 5.0 9.0 0.00 0.32 0.30 37 1081.1
20260503184818 61 216 1.0 3.0 0.00 0.32 0.30 37 1081.2
20260503183231 62 244 5.0 10.0 0.00 0.32 0.30 37 1081.5
20260503182233 62 190 5.0 14.0 0.00 0.32 0.30 37 1081.5
20260503181330 61 314 4.0 9.0 0.00 0.32 0.30 37 1081.7
20260503180332 62 309 2.0 5.0 0.00 0.32 0.30 38 1081.8
20260503175333 61 337 2.0 4.0 0.00 0.32 0.30 39 1081.8
20260503174330 60 224 3.0 6.0 0.00 0.32 0.30 36 1082.1
20260503173232 61 296 3.0 5.0 0.00 0.32 0.30 38 1082.3
20260503172232 61 280 2.0 5.0 0.00 0.32 0.30 40 1082.5
20260503172131 61 279 1.0 3.0 0.00 0.32 0.30 39 1082.5
20260503171130 60 319 1.0 3.0 0.00 0.32 0.30 39 1082.5
20260503170133 60 206 4.0 7.0 0.00 0.33 0.30 39 1082.9
20260503150230 57 299 1.0 3.0 0.02 0.33 0.30 46 1084.1
20260503140131 53 29 0.0 3.0 0.23 0.31 0.27 61 1084.2
20260503131129 45 128 0.0 2.0 0.13 0.17 0.12 90 1084.4
20260503130129 43 266 0.0 0.0 0.05 0.09 0.04 92 1084.3
20260503110245 29 292 0.0 0.0 0.00 0.04 0.00 94 1082.5
20260503100233 28 292 0.0 0.0 0.00 0.04 0.00 94 1081.9
20260503100129 28 292 0.0 0.0 0.00 0.04 0.00 94 1081.9
20260503090247 29 292 0.0 0.0 0.00 0.04 0.00 93 1081.9
20260503081130 29 292 0.0 0.0 0.00 0.04 0.00 92 1081.8
20260503080229 29 292 0.0 0.0 0.00 0.04 0.00 92 1081.7
20260503080131 29 292 0.0 0.0 0.00 0.04 0.00 93 1081.7
20260503072130 30 292 0.0 0.0 0.00 0.04 0.00 92 1081.8
20260503070232 29 292 0.0 0.0 0.00 0.04 0.00 92 1081.8
20260503060329 30 292 0.0 0.0 0.00 0.05 0.00 90 1082.3
20260503054429 30 292 0.0 0.0 0.00 0.05 0.00 90 1082.2
20260503053429 30 292 0.0 0.0 0.00 0.05 0.00 90 1082.2
20260503051531 31 292 0.0 0.0 0.00 0.05 0.00 90 1082.3
20260503051431 31 292 0.0 0.0 0.00 0.05 0.00 90 1082.3
20260503050432 31 292 0.0 0.0 0.00 0.05 0.00 90 1082.3
20260503045530 31 292 0.0 0.0 0.00 0.05 0.00 89 1082.3
20260503042631 32 292 0.0 0.0 0.01 0.05 0.00 88 1082.3
20260503041728 32 292 0.0 0.0 0.01 0.05 0.00 87 1082.3
20260503040730 32 292 0.0 0.0 0.01 0.05 0.00 87 1082.3
20260503040632 32 292 0.0 0.0 0.01 0.05 0.00 87 1082.3
20260503040529 32 292 0.0 0.0 0.01 0.05 0.00 88 1082.4
20260503035531 33 292 0.0 0.0 0.01 0.05 0.05 87 1082.4
20260503032532 33 292 0.0 0.0 0.00 0.04 0.04 83 1082.4
20260503031531 33 292 0.0 0.0 0.00 0.04 0.04 83 1082.4
20260503025531 34 292 0.0 0.0 0.00 0.04 0.04 81 1082.4
20260503024533 34 292 0.0 0.0 0.00 0.04 0.04 79 1082.5
20260503024431 34 292 0.0 0.0 0.00 0.04 0.04 79 1082.5
20260503024331 35 292 0.0 0.0 0.00 0.04 0.04 79 1082.5
20260503023332 35 292 0.0 0.0 0.00 0.04 0.04 77 1082.4
20260503021430 36 292 0.0 0.0 0.00 0.04 0.04 74 1082.5
20260503020430 37 292 0.0 0.0 0.00 0.04 0.04 72 1082.5
20260503015447 37 292 0.0 0.0 0.00 0.04 0.04 71 1082.6
20260503014432 38 292 0.0 0.0 0.00 0.04 0.04 68 1082.5
20260503013448 39 292 0.0 0.0 0.00 0.04 0.04 65 1082.4
20260503011533 41 292 0.0 0.0 0.00 0.04 0.04 60 1082.2
20260503010530 42 292 0.0 0.0 0.00 0.04 0.04 59 1082.1
20260503005532 43 292 0.0 0.0 0.00 0.04 0.04 58 1082.2
20260503004630 44 292 0.0 0.0 0.00 0.04 0.04 56 1082.2
20260503003646 45 292 0.0 0.0 0.00 0.04 0.04 54 1082.3
20260503002729 46 255 0.0 0.0 0.00 0.04 0.04 52 1082.3
20260503002632 46 179 0.0 0.0 0.00 0.04 0.04 52 1082.3